DECAYED

CZ-6A DEB, 54601 (Decayed)

Orbit data source: Space-Track

CZ-6A DEB, 54601 was space debris in SSO originally from a launch on Fri, 11 Nov 2022 UTC launched from the Taiyaun Space Center, China (TSC). Debris objects in space refer to the collection of defunct objects orbiting the Earth. Examples of debris include non-operational satellites, rocket bodies, and fragments generated from explosions, collisions, or faulty payload assembly.

Not visible in the next 10 days
Identifier
54601, 2022-151NB
Orbit
Decayed
Country
Flag of CNCN / PRC
Related business
Manufacturer
SAST
Mission
Decayed spacecraft
Bus & Motor
Unknown
Mass
Unknown
Launch date (UTC)
2022-11-11 (4 years ago)
Launch vehicle
Unknown
Launch site
Taiyaun Space Center, China (TSC)
Object type
Payload
Rocket body
Debris
Shape & HBR
Unknown shape, 0.1 m
Radar Cross Section
Medium (>0.1 m² and <1 m²)

Expand to show TLE details & history
Last TLE update: 2 months ago

TLE from 2 months ago
0 CZ-6A DEB
1 54601U 22151NB  26127.21500985  .04707232  36057-1  13627-1 0  9992
2 54601  98.6031 223.2355 0026895 291.5037  68.3369 15.97030131185957
Epoch: 2026-05-07T05:09Z
TLE epoch observation values (Epoch: 2026-05-07T05:09:36.851Z)
Latitude
0.00003°
Longitude
-79.2324°
Altitude
279.247 km
Speed
7.744 km/s
True Right ascension
14h 52m 56s
True Declination
0° 00' 00"
Sunlit
Object was in full shadow at epoch
Visualization orbit readout
Latitude
Unknown
Longitude
Unknown
Altitude
Unknown
Speed
Unknown
Apparent Right ascension
Unknown
Apparent Declination
Unknown
Sunlit
N/A
Visualization observer readout
Local Sidereal Time
21:32:43
Azimuth
Unknown
Elevation
Unknown
Doppler factor
Unknown
Orbital elements
Apogee altitude
297.491 km
Perigee altitude
261.679 km
Semi-major axis
6,657.722 km
Eccentricity
0.00269
Inclination
98.6031°
RAAN
223.2355°
Arg. of periapsis
291.5037°
True anomaly
68.62368°
Mean anomaly
68.3369°
Eccentric anomaly
68.48026°
Mean motion
3.99535 °/min
Orbital period
90.1 mins
BSTAR
0.013627
Loading maneuver chart data...
Computing Atmospheric mass density...
Loading historical data...
Loading historical data...
Loading historical data...
Loading historical data...
Loading historical data...
Loading historical data...
Loading historical data...

Documentation

Showing up to 5 results
|